Weather History for KHND - January, 2013

Change the Weather History Date:

Thursday, January 24, 2013

  Actual Average (KLAS) Record (KLAS)
Temperature  
Mean Temperature 52 °F 49 °F  
Max Temperature 55 °F 59 °F 75 °F (1948)
Min Temperature 48 °F 40 °F 15 °F (1937)
Degree Days  
Heating Degree Days 14 16  
Month to date heating degree days 399  
Since 1 July heating degree days 1246  
Cooling Degree Days 0 0  
Month to date cooling degree days 0  
Year to date cooling degree days 0  
Growing Degree Days 2 (Base 50)    
Moisture  
Dew Point 37 °F    
Average Humidity 59    
Maximum Humidity 80    
Minimum Humidity 28    
Precipitation  
Precipitation 0.00 in 0.02 in 0.36 in (1995)
Month to date precipitation 0.42  
Year to date precipitation 0.42  
Snow  
Snow 0.00 in 0.00 in 0.00 in (2014)
Month to date snowfall 0.0  
Since 1 July snowfall 0.2  
Snow Depth -    
Sea Level Pressure  
Sea Level Pressure 30.23 in    
Wind  
Wind Speed 4 mph (South)    
Max Wind Speed 9 mph    
Max Gust Speed -    
Visibility 10 miles    
Events Rain    
T = Trace of Precipitation, MM = Missing Value Source: NWS Daily Summary

Daily Weather History Graph

Daily Weather History Graph

Search for Another Location

Airport or City:

Trip Planner

Search our weather history database for the weather conditions in past years. The results will help you decide how hot, cold, wet, or windy it might be!

Date:

Astronomy

Jan. 24, 2013 Rise Set
Actual Time 6:46 AM PST 4:59 PM PST
Civil Twilight 6:18 AM PST 5:26 PM PST
Nautical Twilight 5:47 AM PST 5:57 PM PST
Astronomical Twilight 5:17 AM PST 6:28 PM PST
Moon 3:06 PM PST (1/24) 4:45 AM PST (1/24)
Length of Visible Light 11h 07m
Length of Day
10h 13m
Waxing Gibbous, 95% of the Moon is Illuminated
Jan 24
Waxing Gibbous
Jan 26
Full
Feb 3
Last Quarter
Feb 9
New
Feb 17
First Quarter

Hourly Weather History & Observations

Time (PST) Temp. Dew Point Humidity Pressure Visibility Wind Dir Wind Speed Gust Speed Precip Events Conditions
12:56 AM 50.9 °F 21.0 °F 31% 30.16 in 10.0 mi SW 5.8 mph - N/A   Clear
1:56 AM 52.9 °F 20.1 °F 28% 30.17 in 10.0 mi SW 9.2 mph - N/A   Scattered Clouds
2:56 AM 52.0 °F 24.1 °F 34% 30.16 in 10.0 mi SSE 4.6 mph - 0.00 in Rain Light Rain
3:56 AM 50.9 °F 25.2 °F 37% 30.15 in 10.0 mi South 4.6 mph - 0.00 in   Overcast
4:56 AM 50.0 °F 34.0 °F 54% 30.16 in 10.0 mi ESE 3.5 mph - 0.00 in Rain Heavy Rain
5:56 AM 48.9 °F 41.0 °F 74% 30.16 in 10.0 mi SW 3.5 mph - 0.00 in   Overcast
7:56 AM 48.9 °F 38.8 °F 68% 30.22 in 10.0 mi South 4.6 mph - 0.00 in Rain Heavy Rain
8:56 AM 50.0 °F 39.9 °F 68% 30.23 in 10.0 mi South 4.6 mph - 0.00 in   Mostly Cloudy
9:56 AM 50.9 °F 41.9 °F 71% 30.26 in 10.0 mi South 3.5 mph - 0.00 in Rain Heavy Rain
10:56 AM 54.0 °F 34.9 °F 49% 30.25 in 10.0 mi Calm Calm - 0.00 in   Mostly Cloudy
11:56 AM 54.0 °F 34.0 °F 47% 30.24 in 10.0 mi Calm Calm - 0.00 in Rain Light Rain
12:56 PM 54.9 °F 38.8 °F 55% 30.23 in 10.0 mi Calm Calm - 0.00 in Rain Heavy Rain
1:56 PM 55.9 °F 41.0 °F 57% 30.22 in 10.0 mi NNE 5.8 mph - 0.00 in   Partly Cloudy
2:56 PM 54.9 °F 39.9 °F 57% 30.22 in 10.0 mi Calm Calm - N/A   Mostly Cloudy
3:56 PM 53.6 °F 39.2 °F 58% 30.21 in 10.0 mi NE 8.1 mph - N/A Rain Heavy Rain
4:56 PM 50.9 °F 39.9 °F 66% 30.23 in 10.0 mi NNW 5.8 mph - 0.00 in   Overcast
5:56 PM 50.9 °F 41.9 °F 71% 30.27 in 10.0 mi Calm Calm - N/A   Overcast
6:56 PM 52.0 °F 39.9 °F 63% 30.27 in 10.0 mi Calm Calm - N/A   Overcast
7:56 PM 50.9 °F 41.0 °F 69% 30.26 in 10.0 mi Calm Calm - N/A   Overcast
8:56 PM 50.9 °F 41.9 °F 71% 30.28 in 10.0 mi Calm Calm - N/A   Overcast
9:56 PM 50.0 °F 43.0 °F 77% 30.28 in 10.0 mi Calm Calm - N/A   Overcast
10:56 PM 48.9 °F 43.0 °F 80% 30.28 in 10.0 mi Calm Calm - N/A   Overcast
11:56 PM 48.9 °F 43.0 °F 80% 30.27 in 10.0 mi Calm Calm - N/A   Overcast